Year,Month,Day,Hour,Minute,Value (Times are PST for temperature in C)
2011,05,18,00,00,7.30
2011,05,18,00,05,7.20
2011,05,18,00,06,7.20
2011,05,18,00,07,7.20
2011,05,18,00,08,7.20
2011,05,18,00,09,7.20
2011,05,18,00,10,7.20
2011,05,18,00,11,7.20
2011,05,18,00,12,7.20
2011,05,18,00,13,7.20
2011,05,18,00,14,7.20
2011,05,18,00,15,7.20
2011,05,18,00,16,7.10
2011,05,18,00,17,7.00
2011,05,18,00,18,7.00
2011,05,18,00,19,6.90
2011,05,18,00,20,6.90
2011,05,18,00,21,6.80
2011,05,18,00,22,6.80
2011,05,18,00,23,6.80
2011,05,18,00,24,6.80
2011,05,18,00,25,6.70
2011,05,18,00,26,6.70
2011,05,18,00,27,6.70
2011,05,18,00,28,6.60
2011,05,18,00,29,6.60
2011,05,18,00,30,6.60
2011,05,18,00,31,6.60
2011,05,18,00,32,6.50
2011,05,18,00,33,6.50
2011,05,18,00,34,6.50
2011,05,18,00,35,6.50
2011,05,18,00,36,6.60
2011,05,18,00,37,6.60
2011,05,18,00,38,6.60
2011,05,18,00,39,6.70
2011,05,18,00,40,6.70
2011,05,18,00,41,6.80
2011,05,18,00,42,6.90
2011,05,18,00,43,6.90
2011,05,18,00,44,6.90
2011,05,18,00,45,7.00
2011,05,18,00,46,7.00
2011,05,18,00,47,7.10
2011,05,18,00,48,7.10
2011,05,18,00,49,7.00
2011,05,18,00,50,6.90
2011,05,18,00,51,6.90
2011,05,18,00,52,6.90
2011,05,18,00,53,6.80
2011,05,18,00,54,6.80
2011,05,18,00,55,6.80
2011,05,18,00,56,6.80
2011,05,18,00,57,6.80
2011,05,18,00,58,6.80
2011,05,18,00,59,6.80
2011,05,18,01,00,6.80
2011,05,18,01,01,6.80
2011,05,18,01,02,6.90
2011,05,18,01,03,6.90
2011,05,18,01,04,6.90
2011,05,18,01,05,6.90
2011,05,18,01,06,6.90
2011,05,18,01,07,6.80
2011,05,18,01,08,6.80
2011,05,18,01,09,6.70
2011,05,18,01,10,6.70
2011,05,18,01,11,6.60
2011,05,18,01,12,6.60
2011,05,18,01,13,6.60
2011,05,18,01,14,6.60
2011,05,18,01,15,6.50
2011,05,18,01,16,6.50
2011,05,18,01,17,6.40
2011,05,18,01,18,6.40
2011,05,18,01,19,6.40
2011,05,18,01,20,6.40
2011,05,18,01,21,6.30
2011,05,18,01,22,6.30
2011,05,18,01,23,6.30
2011,05,18,01,24,6.20
2011,05,18,01,25,6.20
2011,05,18,01,26,6.20
2011,05,18,01,27,6.10
2011,05,18,01,28,6.10
2011,05,18,01,29,6.10
2011,05,18,01,30,6.10
2011,05,18,01,31,6.00
2011,05,18,01,32,6.00
2011,05,18,01,33,6.00
2011,05,18,01,34,5.90
2011,05,18,01,35,5.90
2011,05,18,01,36,5.90
2011,05,18,01,37,5.80
2011,05,18,01,38,5.80
2011,05,18,01,39,5.80
2011,05,18,01,40,5.70
2011,05,18,01,41,5.70
2011,05,18,01,42,5.70
2011,05,18,01,43,5.70
2011,05,18,01,44,5.60
2011,05,18,01,45,5.60
2011,05,18,01,46,5.60
2011,05,18,01,47,5.60
2011,05,18,01,48,5.60
2011,05,18,01,49,5.60
2011,05,18,01,50,5.60
2011,05,18,01,51,5.50
2011,05,18,01,52,5.50
2011,05,18,01,53,5.40
2011,05,18,01,54,5.40
2011,05,18,01,55,5.40
2011,05,18,01,56,5.40
2011,05,18,01,57,5.40
2011,05,18,01,58,5.40
2011,05,18,01,59,5.40
2011,05,18,02,00,5.50
2011,05,18,02,01,5.50
2011,05,18,02,02,5.60
2011,05,18,02,03,5.60
2011,05,18,02,04,5.60
2011,05,18,02,05,5.60
2011,05,18,02,06,5.60
2011,05,18,02,07,5.60
2011,05,18,02,08,5.60
2011,05,18,02,09,5.50
2011,05,18,02,10,5.50
2011,05,18,02,11,5.50
2011,05,18,02,12,5.40
2011,05,18,02,13,5.40
2011,05,18,02,14,5.40
2011,05,18,02,15,5.40
2011,05,18,02,16,5.30
2011,05,18,02,17,5.30
2011,05,18,02,18,5.30
2011,05,18,02,19,5.30
2011,05,18,02,20,5.30
2011,05,18,02,21,5.30
2011,05,18,02,22,5.30
2011,05,18,02,23,5.30
2011,05,18,02,24,5.30
2011,05,18,02,25,5.20
2011,05,18,02,26,5.30
2011,05,18,02,27,5.20
2011,05,18,02,28,5.20
2011,05,18,02,29,5.20
2011,05,18,02,30,5.20
2011,05,18,02,31,5.30
2011,05,18,02,32,5.30
2011,05,18,02,33,5.30
2011,05,18,02,34,5.30
2011,05,18,02,35,5.40
2011,05,18,02,36,5.40
2011,05,18,02,37,5.40
2011,05,18,02,38,5.50
2011,05,18,02,39,5.60
2011,05,18,02,40,5.60
2011,05,18,02,41,5.60
2011,05,18,02,42,5.70
2011,05,18,02,43,5.70
2011,05,18,02,44,5.70
2011,05,18,02,45,5.70
2011,05,18,02,46,5.70
2011,05,18,02,47,5.70
2011,05,18,02,48,5.70
2011,05,18,02,49,5.70
2011,05,18,02,50,5.80
2011,05,18,02,51,5.80
2011,05,18,02,52,5.80
2011,05,18,02,53,5.80
2011,05,18,02,54,5.80
2011,05,18,02,55,5.80
2011,05,18,02,56,5.80
2011,05,18,02,57,5.80
2011,05,18,02,58,5.80
2011,05,18,02,59,5.80
2011,05,18,03,00,5.80
2011,05,18,03,01,5.80
2011,05,18,03,02,5.70
2011,05,18,03,03,5.70
2011,05,18,03,04,5.70
2011,05,18,03,05,5.80
2011,05,18,03,06,5.80
2011,05,18,03,07,5.80
2011,05,18,03,08,5.80
2011,05,18,03,09,5.90
2011,05,18,03,10,5.90
2011,05,18,03,11,5.80
2011,05,18,03,12,5.80
2011,05,18,03,13,5.80
2011,05,18,03,14,5.80
2011,05,18,03,15,5.80
2011,05,18,03,16,5.90
2011,05,18,03,17,5.90
2011,05,18,03,18,5.90
2011,05,18,03,19,5.90
2011,05,18,03,20,6.00
2011,05,18,03,21,6.00
2011,05,18,03,22,6.10
2011,05,18,03,23,6.10
2011,05,18,03,24,6.20
2011,05,18,03,25,6.20
2011,05,18,03,26,6.20
2011,05,18,03,27,6.20
2011,05,18,03,28,6.20
2011,05,18,03,29,6.20
2011,05,18,03,30,6.20
2011,05,18,03,31,6.20
2011,05,18,03,32,6.20
2011,05,18,03,33,6.20
2011,05,18,03,34,6.20
2011,05,18,03,35,6.20
2011,05,18,03,36,6.20
2011,05,18,03,37,6.20
2011,05,18,03,38,6.20
2011,05,18,03,39,6.20
2011,05,18,03,40,6.20
2011,05,18,03,41,6.20
2011,05,18,03,42,6.10
2011,05,18,03,43,6.10
2011,05,18,03,44,6.10
2011,05,18,03,45,6.10
2011,05,18,03,46,6.10
2011,05,18,03,47,6.10
2011,05,18,03,48,6.10
2011,05,18,03,49,6.20
2011,05,18,03,50,6.20
2011,05,18,03,51,6.30
2011,05,18,03,52,6.20
2011,05,18,03,53,6.20
2011,05,18,03,54,6.20
2011,05,18,03,55,6.20
2011,05,18,03,56,6.20
2011,05,18,03,57,6.20
2011,05,18,03,58,6.30
2011,05,18,03,59,6.30
2011,05,18,04,00,6.30
2011,05,18,04,01,6.20
2011,05,18,04,02,6.20
2011,05,18,04,03,6.20
2011,05,18,04,04,6.20
2011,05,18,04,05,6.30
2011,05,18,04,06,6.30
2011,05,18,04,07,6.30
2011,05,18,04,08,6.20
2011,05,18,04,09,6.20
2011,05,18,04,10,6.20
2011,05,18,04,11,6.10
2011,05,18,04,12,6.10
2011,05,18,04,13,6.10
2011,05,18,04,14,6.10
2011,05,18,04,15,6.10
2011,05,18,04,16,6.10
2011,05,18,04,17,6.10
2011,05,18,04,18,6.10
2011,05,18,04,19,6.10
2011,05,18,04,20,6.10
2011,05,18,04,21,6.10
2011,05,18,04,22,6.10
2011,05,18,04,23,6.10
2011,05,18,04,24,6.10
2011,05,18,04,25,6.00
2011,05,18,04,26,6.00
2011,05,18,04,27,5.90
2011,05,18,04,28,5.90
2011,05,18,04,29,5.90
2011,05,18,04,30,5.90
2011,05,18,04,31,5.90
2011,05,18,04,32,5.80
2011,05,18,04,33,5.90
2011,05,18,04,34,5.90
2011,05,18,04,35,5.90
2011,05,18,04,36,6.00
2011,05,18,04,37,6.00
2011,05,18,04,38,6.10
2011,05,18,04,39,6.10
2011,05,18,04,40,6.20
2011,05,18,04,41,6.20
2011,05,18,04,42,6.20
2011,05,18,04,43,6.20
2011,05,18,04,44,6.20
2011,05,18,04,45,6.20
2011,05,18,04,46,6.20
2011,05,18,04,47,6.20
2011,05,18,04,48,6.20
2011,05,18,04,49,6.20
2011,05,18,04,50,6.20
2011,05,18,04,51,6.30
2011,05,18,04,52,6.30
2011,05,18,04,53,6.40
2011,05,18,04,54,6.40
2011,05,18,04,55,6.40
2011,05,18,04,56,6.50
2011,05,18,04,57,6.50
2011,05,18,04,58,6.50
2011,05,18,04,59,6.50
2011,05,18,05,00,6.50
2011,05,18,05,01,6.50
2011,05,18,05,02,6.50
2011,05,18,05,03,6.50
2011,05,18,05,04,6.50
2011,05,18,05,05,6.50
2011,05,18,05,06,6.50
2011,05,18,05,07,6.40
2011,05,18,05,08,6.40
2011,05,18,05,09,6.40
2011,05,18,05,10,6.30
2011,05,18,05,11,6.30
2011,05,18,05,12,6.30
2011,05,18,05,13,6.20
2011,05,18,05,14,6.20
2011,05,18,05,15,6.20
2011,05,18,05,16,6.20
2011,05,18,05,17,6.30
2011,05,18,05,18,6.30
2011,05,18,05,19,6.30
2011,05,18,05,20,6.30
2011,05,18,05,21,6.30
2011,05,18,05,22,6.30
2011,05,18,05,23,6.30
2011,05,18,05,24,6.40
2011,05,18,05,25,6.40
2011,05,18,05,26,6.40
2011,05,18,05,27,6.40
2011,05,18,05,28,6.40
2011,05,18,05,29,6.40
2011,05,18,05,30,6.40
2011,05,18,05,31,6.40
2011,05,18,05,32,6.30
2011,05,18,05,33,6.30
2011,05,18,05,34,6.30
2011,05,18,05,35,6.30
2011,05,18,05,36,6.30
2011,05,18,05,37,6.40
2011,05,18,05,38,6.40
2011,05,18,05,39,6.40
2011,05,18,05,40,6.40
2011,05,18,05,41,6.40
2011,05,18,05,42,6.40
2011,05,18,05,43,6.30
2011,05,18,05,44,6.30
2011,05,18,05,45,6.30
2011,05,18,05,46,6.30
2011,05,18,05,47,6.30
2011,05,18,05,48,6.30
2011,05,18,05,49,6.30
2011,05,18,05,50,6.30
2011,05,18,05,51,6.40
2011,05,18,05,52,6.40
2011,05,18,05,53,6.40
2011,05,18,05,54,6.40
2011,05,18,05,55,6.40
2011,05,18,05,56,6.50
2011,05,18,05,57,6.50
2011,05,18,05,58,6.50
2011,05,18,05,59,6.50
2011,05,18,06,00,6.40
2011,05,18,06,01,6.40
2011,05,18,06,02,6.50
2011,05,18,06,03,6.50
2011,05,18,06,04,6.50
2011,05,18,06,05,6.50
2011,05,18,06,06,6.60
2011,05,18,06,07,6.60
2011,05,18,06,08,6.60
2011,05,18,06,09,6.60
2011,05,18,06,10,6.60
2011,05,18,06,11,6.60
2011,05,18,06,12,6.60
2011,05,18,06,13,6.60
2011,05,18,06,14,6.60
2011,05,18,06,15,6.50
2011,05,18,06,16,6.50
2011,05,18,06,17,6.50
2011,05,18,06,18,6.50
2011,05,18,06,19,6.50
2011,05,18,06,20,6.40
2011,05,18,06,21,6.40
2011,05,18,06,22,6.40
2011,05,18,06,23,6.40
2011,05,18,06,24,6.40
2011,05,18,06,25,6.40
2011,05,18,06,26,6.40
2011,05,18,06,27,6.40
2011,05,18,06,28,6.40
2011,05,18,06,29,6.40
2011,05,18,06,30,6.40
2011,05,18,06,31,6.40
2011,05,18,06,32,6.40
2011,05,18,06,33,6.40
2011,05,18,06,34,6.40
2011,05,18,06,35,6.40
2011,05,18,06,36,6.40
2011,05,18,06,37,6.40
2011,05,18,06,38,6.40
2011,05,18,06,39,6.40
2011,05,18,06,40,6.50
2011,05,18,06,41,6.50
2011,05,18,06,42,6.50
2011,05,18,06,43,6.50
2011,05,18,06,44,6.50
2011,05,18,06,45,6.50
2011,05,18,06,46,6.50
2011,05,18,06,47,6.50
2011,05,18,06,48,6.50
2011,05,18,06,49,6.50
2011,05,18,06,50,6.60
2011,05,18,06,51,6.60
2011,05,18,06,52,6.60
2011,05,18,06,53,6.70
2011,05,18,06,54,6.70
2011,05,18,06,55,6.80
2011,05,18,06,56,6.80
2011,05,18,06,57,6.80
2011,05,18,06,58,6.80
2011,05,18,06,59,6.90
2011,05,18,07,00,6.90
2011,05,18,07,01,6.90
2011,05,18,07,02,7.00
2011,05,18,07,03,7.10
2011,05,18,07,04,7.10
2011,05,18,07,05,7.20
2011,05,18,07,06,7.20
2011,05,18,07,07,7.20
2011,05,18,07,08,7.20
2011,05,18,07,09,7.30
2011,05,18,07,10,7.30
2011,05,18,07,11,7.30
2011,05,18,07,12,7.30
2011,05,18,07,13,7.40
2011,05,18,07,14,7.50
2011,05,18,07,15,7.50
2011,05,18,07,16,7.60
2011,05,18,07,17,7.60
2011,05,18,07,18,7.70
2011,05,18,07,19,7.70
2011,05,18,07,20,7.80
2011,05,18,07,21,7.80
2011,05,18,07,22,7.80
2011,05,18,07,23,7.90
2011,05,18,07,24,7.90
2011,05,18,07,25,8.00
2011,05,18,07,26,8.10
2011,05,18,07,27,8.10
2011,05,18,07,28,8.20
2011,05,18,07,29,8.20
2011,05,18,07,30,8.30
2011,05,18,07,31,8.40
2011,05,18,07,32,8.40
2011,05,18,07,33,8.50
2011,05,18,07,34,8.60
2011,05,18,07,35,8.70
2011,05,18,07,36,8.80
2011,05,18,07,37,8.90
2011,05,18,07,38,9.00
2011,05,18,07,39,9.10
2011,05,18,07,40,9.10
2011,05,18,07,41,9.20
2011,05,18,07,42,9.30
2011,05,18,07,43,9.30
2011,05,18,07,44,9.40
2011,05,18,07,45,9.40
2011,05,18,07,46,9.50
2011,05,18,07,47,9.50
2011,05,18,07,48,9.60
2011,05,18,07,49,9.60
2011,05,18,07,50,9.70
2011,05,18,07,51,9.70
2011,05,18,07,52,9.70
2011,05,18,07,53,9.80
2011,05,18,07,54,9.80
2011,05,18,07,55,9.90
2011,05,18,07,56,9.90
2011,05,18,07,57,9.90
2011,05,18,07,58,10.00
2011,05,18,07,59,10.00
2011,05,18,08,00,10.00
2011,05,18,08,01,10.10
2011,05,18,08,02,10.10
2011,05,18,08,03,10.10
2011,05,18,08,04,10.10
2011,05,18,08,05,10.10
2011,05,18,08,06,10.20
2011,05,18,08,07,10.20
2011,05,18,08,08,10.20
2011,05,18,08,09,10.20
2011,05,18,08,10,10.30
2011,05,18,08,11,10.30
2011,05,18,08,12,10.30
2011,05,18,08,13,10.30
2011,05,18,08,14,10.30
2011,05,18,08,15,10.30
2011,05,18,08,16,10.40
2011,05,18,08,17,10.40
2011,05,18,08,18,10.40
2011,05,18,08,19,10.40
2011,05,18,08,20,10.50
2011,05,18,08,21,10.50
2011,05,18,08,22,10.60
2011,05,18,08,23,10.60
2011,05,18,08,24,10.60
2011,05,18,08,25,10.70
2011,05,18,08,26,10.70
2011,05,18,08,27,10.80
2011,05,18,08,28,10.80
2011,05,18,08,29,10.80
2011,05,18,08,30,10.90
2011,05,18,08,31,10.90
2011,05,18,08,32,11.00
2011,05,18,08,33,11.00
2011,05,18,08,34,11.10
2011,05,18,08,35,11.20
2011,05,18,08,36,11.30
2011,05,18,08,37,11.30
2011,05,18,08,38,11.40
2011,05,18,08,39,11.40
2011,05,18,08,40,11.40
2011,05,18,08,41,11.40
2011,05,18,08,42,11.50
2011,05,18,08,43,11.60
2011,05,18,08,44,11.60
2011,05,18,08,45,11.70
2011,05,18,08,46,11.70
2011,05,18,08,47,11.70
2011,05,18,08,48,11.70
2011,05,18,08,49,11.70
2011,05,18,08,50,11.80
2011,05,18,08,51,11.80
2011,05,18,08,52,11.90
2011,05,18,08,53,11.90
2011,05,18,08,54,11.90
2011,05,18,08,55,11.90
2011,05,18,08,56,11.80
2011,05,18,08,57,11.80
2011,05,18,08,58,11.80
2011,05,18,08,59,11.80
2011,05,18,09,00,11.80
2011,05,18,09,01,11.70
2011,05,18,09,02,11.70
2011,05,18,09,03,11.70
2011,05,18,09,04,11.60
2011,05,18,09,05,11.60
2011,05,18,09,06,11.60
2011,05,18,09,07,11.60
2011,05,18,09,08,11.50
2011,05,18,09,09,11.50
2011,05,18,09,10,11.50
2011,05,18,09,11,11.60
2011,05,18,09,12,11.60
2011,05,18,09,13,11.70
2011,05,18,09,14,11.70
2011,05,18,09,15,11.70
2011,05,18,09,16,11.80
2011,05,18,09,17,11.80
2011,05,18,09,18,11.80
2011,05,18,09,19,11.90
2011,05,18,09,20,11.90
2011,05,18,09,21,11.90
2011,05,18,09,22,11.90
2011,05,18,09,23,12.00
2011,05,18,09,24,12.00
2011,05,18,09,25,12.10
2011,05,18,09,26,12.10
2011,05,18,09,27,12.20
2011,05,18,09,28,12.30
2011,05,18,09,29,12.40
2011,05,18,09,30,12.40
2011,05,18,09,31,12.50
2011,05,18,09,32,12.50
2011,05,18,09,33,12.60
2011,05,18,09,34,12.60
2011,05,18,09,35,12.70
2011,05,18,09,36,12.70
2011,05,18,09,37,12.80
2011,05,18,09,38,12.80
2011,05,18,09,39,12.70
2011,05,18,09,40,12.70
2011,05,18,09,41,12.60
2011,05,18,09,42,12.60
2011,05,18,09,43,12.40
2011,05,18,09,44,12.30
2011,05,18,09,45,12.20
2011,05,18,09,46,12.30
2011,05,18,09,47,12.30
2011,05,18,09,48,12.20
2011,05,18,09,49,12.20
2011,05,18,09,50,12.10
2011,05,18,09,51,12.00
2011,05,18,09,52,12.00
2011,05,18,09,53,12.00
2011,05,18,09,54,12.10
2011,05,18,09,55,12.10
2011,05,18,09,56,12.10
2011,05,18,09,57,12.10
2011,05,18,09,58,12.10
2011,05,18,09,59,12.10
2011,05,18,10,00,12.10
2011,05,18,10,01,12.10
2011,05,18,10,02,12.20
2011,05,18,10,03,12.20
2011,05,18,10,04,12.20
2011,05,18,10,05,12.10
2011,05,18,10,06,12.10
2011,05,18,10,07,12.00
2011,05,18,10,08,11.90
2011,05,18,10,09,12.00
2011,05,18,10,10,12.10
2011,05,18,10,11,12.10
2011,05,18,10,12,12.10
2011,05,18,10,13,12.10
2011,05,18,10,14,12.10
2011,05,18,10,15,12.10
2011,05,18,10,16,12.10
2011,05,18,10,17,12.20
2011,05,18,10,18,12.40
2011,05,18,10,19,12.40
2011,05,18,10,20,12.40
2011,05,18,10,21,12.40
2011,05,18,10,22,12.40
2011,05,18,10,23,12.40
2011,05,18,10,24,12.50
2011,05,18,10,25,12.50
2011,05,18,10,26,12.60
2011,05,18,10,27,12.60
2011,05,18,10,28,12.70
2011,05,18,10,29,12.70
2011,05,18,10,30,12.80
2011,05,18,10,31,12.90
2011,05,18,10,32,13.00
2011,05,18,10,33,13.00
2011,05,18,10,34,12.90
2011,05,18,10,35,12.90
2011,05,18,10,36,12.80
2011,05,18,10,37,12.70
2011,05,18,10,38,12.60
2011,05,18,10,39,12.50
2011,05,18,10,40,12.50
2011,05,18,10,41,12.40
2011,05,18,10,42,12.40
2011,05,18,10,43,12.30
2011,05,18,10,44,12.30
2011,05,18,10,45,12.30
2011,05,18,10,46,12.30
2011,05,18,10,47,12.30
2011,05,18,10,48,12.30
2011,05,18,10,49,12.30
2011,05,18,10,50,12.20
2011,05,18,10,51,12.20
2011,05,18,10,52,12.10
2011,05,18,10,53,12.10
2011,05,18,10,54,12.00
2011,05,18,10,55,12.00
2011,05,18,10,56,12.00
2011,05,18,10,57,11.90
2011,05,18,10,58,11.90
2011,05,18,10,59,11.90
2011,05,18,11,00,11.80
2011,05,18,11,01,11.80
2011,05,18,11,02,11.80
2011,05,18,11,03,11.90
2011,05,18,11,04,12.00
2011,05,18,11,05,12.00
2011,05,18,11,06,12.00
2011,05,18,11,07,11.90
2011,05,18,11,08,11.90
2011,05,18,11,09,11.90
2011,05,18,11,10,11.90
2011,05,18,11,11,11.90
2011,05,18,11,12,12.00
2011,05,18,11,13,12.10
2011,05,18,11,14,12.10
2011,05,18,11,15,12.20
2011,05,18,11,16,12.20
2011,05,18,11,17,12.20
2011,05,18,11,18,12.10
2011,05,18,11,19,12.10
2011,05,18,11,20,12.10
2011,05,18,11,21,12.10
2011,05,18,11,22,12.20
2011,05,18,11,23,12.20
2011,05,18,11,24,12.30
2011,05,18,11,25,12.30
2011,05,18,11,26,12.30
2011,05,18,11,27,12.30
2011,05,18,11,28,12.40
2011,05,18,11,29,12.40
2011,05,18,11,30,12.50
2011,05,18,11,31,12.50
2011,05,18,11,32,12.60
2011,05,18,11,33,12.50
2011,05,18,11,34,12.40
2011,05,18,11,35,12.30
2011,05,18,11,36,12.30
2011,05,18,11,37,12.30
2011,05,18,11,38,12.30
2011,05,18,11,39,12.30
2011,05,18,11,40,12.40
2011,05,18,11,41,12.40
2011,05,18,11,42,12.40
2011,05,18,11,43,12.30
2011,05,18,11,44,12.30
2011,05,18,11,45,12.40
2011,05,18,11,46,12.40
2011,05,18,11,47,12.40
2011,05,18,11,48,12.40
2011,05,18,11,49,12.40
2011,05,18,11,50,12.40
2011,05,18,11,51,12.50
2011,05,18,11,52,12.50
2011,05,18,11,53,12.60
2011,05,18,11,54,12.70
2011,05,18,11,55,12.70
2011,05,18,11,56,12.60
2011,05,18,11,57,12.50
2011,05,18,11,58,12.40
2011,05,18,11,59,12.30
2011,05,18,12,00,12.30
2011,05,18,12,01,12.30
2011,05,18,12,02,12.30
2011,05,18,12,03,12.30
2011,05,18,12,04,12.40
2011,05,18,12,05,12.40
2011,05,18,12,06,12.40
2011,05,18,12,07,12.40
2011,05,18,12,08,12.40
2011,05,18,12,09,12.50
2011,05,18,12,10,12.40
2011,05,18,12,11,12.50
2011,05,18,12,12,12.60
2011,05,18,12,13,12.70
2011,05,18,12,14,12.80
2011,05,18,12,15,12.80
2011,05,18,12,16,12.80
2011,05,18,12,17,12.80
2011,05,18,12,18,12.90
2011,05,18,12,19,12.90
2011,05,18,12,20,12.90
2011,05,18,12,21,12.90
2011,05,18,12,22,12.90
2011,05,18,12,23,13.00
2011,05,18,12,24,13.00
2011,05,18,12,25,13.10
2011,05,18,12,26,13.20
2011,05,18,12,27,13.10
2011,05,18,12,28,13.20
2011,05,18,12,29,13.20
2011,05,18,12,30,13.20
2011,05,18,12,31,13.10
2011,05,18,12,32,13.10
2011,05,18,12,33,13.10
2011,05,18,12,34,13.10
2011,05,18,12,35,13.10
2011,05,18,12,36,13.20
2011,05,18,12,37,13.20
2011,05,18,12,38,13.30
2011,05,18,12,39,13.40
2011,05,18,12,40,13.30
2011,05,18,12,41,13.40
2011,05,18,12,42,13.40
2011,05,18,12,43,13.30
2011,05,18,12,44,13.30
2011,05,18,12,45,13.30
2011,05,18,12,46,13.40
2011,05,18,12,47,13.50
2011,05,18,12,48,13.60
2011,05,18,12,49,13.70
2011,05,18,12,50,13.70
2011,05,18,12,51,13.70
2011,05,18,12,52,13.70
2011,05,18,12,53,13.60
2011,05,18,12,54,13.50
2011,05,18,12,55,13.50
2011,05,18,12,56,13.50
2011,05,18,12,57,13.60
2011,05,18,12,58,13.60
2011,05,18,12,59,13.70
2011,05,18,13,00,13.90
2011,05,18,13,01,13.90
2011,05,18,13,02,14.00
2011,05,18,13,03,14.10
2011,05,18,13,04,14.10
2011,05,18,13,05,14.00
2011,05,18,13,06,13.90
2011,05,18,13,07,13.80
2011,05,18,13,08,13.80
2011,05,18,13,09,13.80
2011,05,18,13,10,13.80
2011,05,18,13,11,13.90
2011,05,18,13,12,13.80
2011,05,18,13,13,13.90
2011,05,18,13,14,13.80
2011,05,18,13,15,13.80
2011,05,18,13,16,13.70
2011,05,18,13,17,13.60
2011,05,18,13,18,13.50
2011,05,18,13,19,13.50
2011,05,18,13,20,13.40
2011,05,18,13,21,13.40
2011,05,18,13,22,13.40
2011,05,18,13,23,13.30
2011,05,18,13,24,13.20
2011,05,18,13,25,13.20
2011,05,18,13,26,13.20
2011,05,18,13,27,13.30
2011,05,18,13,28,13.20
2011,05,18,13,29,13.20
2011,05,18,13,30,13.30
2011,05,18,13,31,13.20
2011,05,18,13,32,13.20
2011,05,18,13,33,13.10
2011,05,18,13,34,13.10
2011,05,18,13,35,13.10
2011,05,18,13,36,13.10
2011,05,18,13,37,13.20
2011,05,18,13,38,13.30
2011,05,18,13,39,13.30
2011,05,18,13,40,13.40
2011,05,18,13,41,13.50
2011,05,18,13,42,13.50
2011,05,18,13,43,13.40
2011,05,18,13,44,13.40
2011,05,18,13,45,13.50
2011,05,18,13,46,13.60
2011,05,18,13,47,13.60
2011,05,18,13,48,13.60
2011,05,18,13,49,13.60
2011,05,18,13,50,13.70
2011,05,18,13,51,13.60
2011,05,18,13,52,13.60
2011,05,18,13,53,13.40
2011,05,18,13,54,13.30
2011,05,18,13,55,13.20
2011,05,18,13,56,13.20
2011,05,18,13,57,13.20
2011,05,18,13,58,13.20
2011,05,18,13,59,13.20
2011,05,18,14,00,13.30
2011,05,18,14,01,13.40
2011,05,18,14,02,13.40
2011,05,18,14,03,13.40
2011,05,18,14,04,13.40
2011,05,18,14,05,13.30
2011,05,18,14,06,13.30
2011,05,18,14,07,13.20
2011,05,18,14,08,13.20
2011,05,18,14,09,13.30
2011,05,18,14,10,13.30
2011,05,18,14,11,13.50
2011,05,18,14,12,13.60
2011,05,18,14,13,13.60
2011,05,18,14,14,13.50
2011,05,18,14,15,13.40
2011,05,18,14,16,13.30
2011,05,18,14,17,13.30
2011,05,18,14,18,13.30
2011,05,18,14,19,13.40
2011,05,18,14,20,13.60
2011,05,18,14,21,13.70
2011,05,18,14,22,13.70
2011,05,18,14,23,13.70
2011,05,18,14,24,13.70
2011,05,18,14,25,13.70
2011,05,18,14,26,13.80
2011,05,18,14,27,13.80
2011,05,18,14,28,13.90
2011,05,18,14,29,13.90
2011,05,18,14,30,13.90
2011,05,18,14,31,14.00
2011,05,18,14,32,14.20
2011,05,18,14,33,14.30
2011,05,18,14,34,14.40
2011,05,18,14,35,14.40
2011,05,18,14,36,14.40
2011,05,18,14,37,14.50
2011,05,18,14,38,14.40
2011,05,18,14,39,14.30
2011,05,18,14,40,14.30
2011,05,18,14,41,14.30
2011,05,18,14,42,14.30
2011,05,18,14,43,14.40
2011,05,18,14,44,14.50
2011,05,18,14,45,14.60
2011,05,18,14,46,14.60
2011,05,18,14,47,14.50
2011,05,18,14,48,14.40
2011,05,18,14,49,14.30
2011,05,18,14,50,14.20
2011,05,18,14,51,14.20
2011,05,18,14,52,14.10
2011,05,18,14,53,14.00
2011,05,18,14,54,13.90
2011,05,18,14,55,13.90
2011,05,18,14,56,13.90
2011,05,18,14,57,13.90
2011,05,18,14,58,14.00
2011,05,18,14,59,14.10
2011,05,18,15,00,14.30
2011,05,18,15,01,14.40
2011,05,18,15,02,14.50
2011,05,18,15,03,14.50
2011,05,18,15,04,14.50
2011,05,18,15,05,14.50
2011,05,18,15,06,14.50
2011,05,18,15,07,14.40
2011,05,18,15,08,14.40
2011,05,18,15,09,14.40
2011,05,18,15,10,14.30
2011,05,18,15,11,14.20
2011,05,18,15,12,14.20
2011,05,18,15,13,14.10
2011,05,18,15,14,14.00
2011,05,18,15,15,14.00
2011,05,18,15,16,14.00
2011,05,18,15,17,14.00
2011,05,18,15,18,14.00
2011,05,18,15,19,14.00
2011,05,18,15,20,14.00
2011,05,18,15,21,14.00
2011,05,18,15,22,13.90
2011,05,18,15,23,13.90
2011,05,18,15,24,13.90
2011,05,18,15,25,13.90
2011,05,18,15,26,13.90
2011,05,18,15,27,13.80
2011,05,18,15,28,13.90
2011,05,18,15,29,13.90
2011,05,18,15,30,13.90
2011,05,18,15,31,13.90
2011,05,18,15,32,14.00
2011,05,18,15,33,14.00
2011,05,18,15,34,14.10
2011,05,18,15,35,14.20
2011,05,18,15,36,14.20
2011,05,18,15,37,14.20
2011,05,18,15,38,14.20
2011,05,18,15,39,14.20
2011,05,18,15,40,14.20
2011,05,18,15,41,14.20
2011,05,18,15,42,14.10
2011,05,18,15,43,14.20
2011,05,18,15,44,14.20
2011,05,18,15,45,14.20
2011,05,18,15,46,14.20
2011,05,18,15,47,14.20
2011,05,18,15,48,14.20
2011,05,18,15,49,14.30
2011,05,18,15,50,14.30
2011,05,18,15,51,14.30
2011,05,18,15,52,14.30
2011,05,18,15,53,14.30
2011,05,18,15,54,14.30
2011,05,18,15,55,14.30
2011,05,18,15,56,14.40
2011,05,18,15,57,14.40
2011,05,18,15,58,14.50
2011,05,18,15,59,14.60
2011,05,18,16,00,14.60
2011,05,18,16,01,14.50
2011,05,18,16,02,14.40
2011,05,18,16,03,14.40
2011,05,18,16,04,14.40
2011,05,18,16,05,14.50
2011,05,18,16,06,14.60
2011,05,18,16,07,14.60
2011,05,18,16,08,14.70
2011,05,18,16,09,14.60
2011,05,18,16,10,14.50
2011,05,18,16,11,14.30
2011,05,18,16,12,14.20
2011,05,18,16,13,14.10
2011,05,18,16,14,14.10
2011,05,18,16,15,14.10
2011,05,18,16,16,14.10
2011,05,18,16,17,14.10
2011,05,18,16,18,14.10
2011,05,18,16,19,14.10
2011,05,18,16,20,14.20
2011,05,18,16,21,14.20
2011,05,18,16,22,14.20
2011,05,18,16,23,14.20
2011,05,18,16,24,14.20
2011,05,18,16,25,14.20
2011,05,18,16,26,14.20
2011,05,18,16,27,14.20
2011,05,18,16,28,14.20
2011,05,18,16,29,14.10
2011,05,18,16,30,14.10
2011,05,18,16,31,14.10
2011,05,18,16,32,14.10
2011,05,18,16,33,14.10
2011,05,18,16,34,14.10
2011,05,18,16,35,14.10
2011,05,18,16,36,14.10
2011,05,18,16,37,14.10
2011,05,18,16,38,14.00
2011,05,18,16,39,14.00
2011,05,18,16,40,14.00
2011,05,18,16,41,14.10
2011,05,18,16,42,14.00
2011,05,18,16,43,14.00
2011,05,18,16,44,14.00
2011,05,18,16,45,13.90
2011,05,18,16,46,13.90
2011,05,18,16,47,13.90
2011,05,18,16,48,13.80
2011,05,18,16,49,13.80
2011,05,18,16,50,13.70
2011,05,18,16,51,13.70
2011,05,18,16,52,13.70
2011,05,18,16,53,13.80
2011,05,18,16,54,13.80
2011,05,18,16,55,13.80
2011,05,18,16,56,13.80
2011,05,18,16,57,13.90
2011,05,18,16,58,13.90
2011,05,18,16,59,14.00
2011,05,18,17,00,14.10
2011,05,18,17,01,14.20
2011,05,18,17,02,14.30
2011,05,18,17,03,14.30
2011,05,18,17,04,14.40
2011,05,18,17,05,14.50
2011,05,18,17,06,14.60
2011,05,18,17,07,14.60
2011,05,18,17,08,14.50
2011,05,18,17,09,14.50
2011,05,18,17,10,14.50
2011,05,18,17,11,14.50
2011,05,18,17,12,14.40
2011,05,18,17,13,14.30
2011,05,18,17,14,14.30
2011,05,18,17,15,14.40
2011,05,18,17,16,14.60
2011,05,18,17,17,14.60
2011,05,18,17,18,14.60
2011,05,18,17,19,14.60
2011,05,18,17,20,14.60
2011,05,18,17,21,14.60
2011,05,18,17,22,14.70
2011,05,18,17,23,14.80
2011,05,18,17,24,14.80
2011,05,18,17,25,14.80
2011,05,18,17,26,14.90
2011,05,18,17,27,14.90
2011,05,18,17,28,14.80
2011,05,18,17,29,14.80
2011,05,18,17,30,14.80
2011,05,18,17,31,14.80
2011,05,18,17,32,14.70
2011,05,18,17,33,14.70
2011,05,18,17,34,14.70
2011,05,18,17,35,14.60
2011,05,18,17,36,14.60
2011,05,18,17,37,14.50
2011,05,18,17,38,14.30
2011,05,18,17,39,14.20
2011,05,18,17,40,14.10
2011,05,18,17,41,14.10
2011,05,18,17,42,14.00
2011,05,18,17,43,14.00
2011,05,18,17,44,13.90